Time,TemperatureF,DewpointF,PressureIn,WindDirection,WindDirectionDegrees,WindSpeedMPH,WindSpeedGustMPH,Humidity,HourlyPrecipIn,Conditions,Clouds,dailyrainin,SoftwareType,DateUTC
2013-10-19 00:07:00,50.8,34.0,29.22,NW,322,2.0,9.0,53,0.00,,,0.09,weatherlink.com 1.10,2013-10-19 08:07:00,
2013-10-19 00:22:00,53.2,32.0,29.19,South,191,3.0,25.0,45,0.00,,,0.09,weatherlink.com 1.10,2013-10-19 08:22:00,
2013-10-19 00:37:00,53.9,32.0,29.19,SSW,206,10.0,32.0,43,0.00,,,0.09,weatherlink.com 1.10,2013-10-19 08:37:00,
2013-10-19 00:52:00,54.0,31.0,29.17,SW,219,23.0,37.0,42,0.00,,,0.09,weatherlink.com 1.10,2013-10-19 08:52:00,
2013-10-19 01:07:00,54.2,31.0,29.16,SW,214,17.0,28.0,41,0.00,,,0.09,weatherlink.com 1.10,2013-10-19 09:07:00,
2013-10-19 01:22:00,54.0,31.0,29.16,SSE,162,13.0,23.0,42,0.00,,,0.09,weatherlink.com 1.10,2013-10-19 09:22:00,
2013-10-19 01:37:00,54.0,31.0,29.15,SW,220,8.0,17.0,42,0.00,,,0.09,weatherlink.com 1.10,2013-10-19 09:37:00,
2013-10-19 01:52:00,54.5,31.0,29.16,South,178,13.0,20.0,41,0.00,,,0.09,weatherlink.com 1.10,2013-10-19 09:52:00,
2013-10-19 02:07:00,54.0,31.0,29.15,WSW,250,9.0,21.0,42,0.00,,,0.09,weatherlink.com 1.10,2013-10-19 10:07:00,
2013-10-19 02:22:00,53.4,31.0,29.14,South,180,8.0,10.0,43,0.00,,,0.09,weatherlink.com 1.10,2013-10-19 10:22:00,
2013-10-19 02:37:00,53.2,32.0,29.13,ESE,117,5.0,24.0,45,0.00,,,0.09,weatherlink.com 1.10,2013-10-19 10:37:00,
2013-10-19 02:52:00,52.1,34.0,29.12,NNW,337,2.0,17.0,50,0.00,,,0.09,weatherlink.com 1.10,2013-10-19 10:52:00,
2013-10-19 03:07:00,48.4,35.0,29.12,NE,35,6.0,10.0,61,0.00,,,0.00,weatherlink.com 1.10,2013-10-19 11:07:00,
2013-10-19 03:22:00,46.9,36.0,29.12,WNW,285,3.0,11.0,66,0.00,,,0.00,weatherlink.com 1.10,2013-10-19 11:22:00,
2013-10-19 03:37:00,47.0,36.0,29.09,North,360,12.0,16.0,67,0.00,,,0.00,weatherlink.com 1.10,2013-10-19 11:37:00,
2013-10-19 03:52:00,46.5,38.0,29.08,NW,319,5.0,9.0,71,0.00,,,0.00,weatherlink.com 1.10,2013-10-19 11:52:00,
2013-10-19 04:07:00,45.8,37.0,29.07,ENE,70,5.0,15.0,72,0.00,,,0.00,weatherlink.com 1.10,2013-10-19 12:07:00,
2013-10-19 04:22:00,47.1,37.0,29.06,North,356,11.0,17.0,67,0.00,,,0.00,weatherlink.com 1.10,2013-10-19 12:22:00,
2013-10-19 04:38:00,45.8,38.0,29.05,NNW,337,16.0,18.0,73,0.00,,,0.00,weatherlink.com 1.10,2013-10-19 12:38:00,
2013-10-19 04:53:00,46.7,37.0,29.04,WSW,250,9.0,16.0,70,0.00,,,0.00,weatherlink.com 1.10,2013-10-19 12:53:00,
2013-10-19 05:08:00,54.1,34.0,29.03,South,182,7.0,24.0,46,0.00,,,0.00,weatherlink.com 1.10,2013-10-19 13:08:00,
2013-10-19 05:23:00,52.1,37.0,29.01,NNE,28,16.0,16.0,57,0.00,,,0.00,weatherlink.com 1.10,2013-10-19 13:23:00,
2013-10-19 05:38:00,45.1,39.0,29.00,North,6,14.0,20.0,78,0.00,,,0.00,weatherlink.com 1.10,2013-10-19 13:38:00,
2013-10-19 05:53:00,43.8,39.0,29.00,North,7,8.0,19.0,82,0.00,,,0.00,weatherlink.com 1.10,2013-10-19 13:53:00,
2013-10-19 06:08:00,44.0,39.0,29.02,NNE,27,8.0,22.0,82,0.00,,,0.00,weatherlink.com 1.10,2013-10-19 14:08:00,
2013-10-19 06:23:00,45.3,37.0,28.99,NNW,331,7.0,25.0,74,0.00,,,0.00,weatherlink.com 1.10,2013-10-19 14:23:00,
2013-10-19 06:38:00,45.8,38.0,29.00,NE,54,13.0,18.0,75,0.00,,,0.00,weatherlink.com 1.10,2013-10-19 14:38:00,
2013-10-19 06:53:00,44.5,38.0,29.00,NNE,23,13.0,19.0,78,0.00,,,0.00,weatherlink.com 1.10,2013-10-19 14:53:00,
2013-10-19 07:08:00,44.7,38.0,28.99,NNE,18,12.0,16.0,78,0.00,,,0.00,weatherlink.com 1.10,2013-10-19 15:08:00,
2013-10-19 07:23:00,44.9,38.0,28.99,SE,127,2.0,14.0,77,0.00,,,0.00,weatherlink.com 1.10,2013-10-19 15:23:00,
2013-10-19 07:38:00,44.5,38.0,28.99,NNE,23,0.0,7.0,78,0.00,,,0.00,weatherlink.com 1.10,2013-10-19 15:38:00,
2013-10-19 07:53:00,44.2,38.0,28.99,NNE,13,2.0,5.0,78,0.00,,,0.00,weatherlink.com 1.10,2013-10-19 15:53:00,
2013-10-19 08:08:00,44.0,38.0,29.00,East,86,2.0,3.0,79,0.00,,,0.00,weatherlink.com 1.10,2013-10-19 16:08:00,
2013-10-19 08:23:00,43.7,38.0,29.01,ENE,64,0.0,5.0,80,0.00,,,0.00,weatherlink.com 1.10,2013-10-19 16:23:00,
2013-10-19 08:38:00,43.8,38.0,29.01,SSE,166,0.0,3.0,80,0.00,,,0.00,weatherlink.com 1.10,2013-10-19 16:38:00,
2013-10-19 08:53:00,43.8,38.0,29.00,East,94,2.0,8.0,80,0.00,,,0.00,weatherlink.com 1.10,2013-10-19 16:53:00,
2013-10-19 09:08:00,43.6,38.0,29.01,NE,36,1.0,7.0,81,0.00,,,0.00,weatherlink.com 1.10,2013-10-19 17:08:00,
2013-10-19 09:23:00,43.4,38.0,29.02,NE,40,0.0,4.0,82,0.00,,,0.00,weatherlink.com 1.10,2013-10-19 17:23:00,
2013-10-19 09:38:00,43.7,38.0,29.02,WSW,256,3.0,7.0,81,0.00,,,0.00,weatherlink.com 1.10,2013-10-19 17:38:00,
2013-10-19 09:53:00,47.6,40.0,29.03,SW,233,16.0,18.0,74,0.00,,,0.00,weatherlink.com 1.10,2013-10-19 17:53:00,
2013-10-19 10:08:00,48.5,39.0,29.04,SW,227,13.0,31.0,71,0.00,,,0.00,weatherlink.com 1.10,2013-10-19 18:08:00,
2013-10-19 10:23:00,47.5,40.0,29.05,WSW,247,4.0,21.0,75,0.00,,,0.00,weatherlink.com 1.10,2013-10-19 18:23:00,
2013-10-19 10:38:00,47.8,40.0,29.06,WNW,301,5.0,12.0,75,0.00,,,0.00,weatherlink.com 1.10,2013-10-19 18:38:00,
2013-10-19 10:53:00,48.1,40.0,29.06,NW,312,5.0,10.0,74,0.00,,,0.00,weatherlink.com 1.10,2013-10-19 18:53:00,
2013-10-19 11:08:00,48.2,40.0,29.06,WNW,302,5.0,11.0,73,0.00,,,0.00,weatherlink.com 1.10,2013-10-19 19:08:00,
2013-10-19 11:23:00,50.9,35.0,29.06,WSW,245,10.0,15.0,56,0.00,,,0.00,weatherlink.com 1.10,2013-10-19 19:23:00,
2013-10-19 11:38:00,53.0,34.0,29.07,WSW,247,13.0,17.0,48,0.00,,,0.00,weatherlink.com 1.10,2013-10-19 19:38:00,
2013-10-19 11:53:00,53.3,31.0,29.07,SSE,166,13.0,25.0,43,0.00,,,0.00,weatherlink.com 1.10,2013-10-19 19:53:00,
2013-10-19 12:08:00,52.8,31.0,29.08,SSW,210,7.0,16.0,43,0.00,,,0.00,weatherlink.com 1.10,2013-10-19 20:08:00,
2013-10-19 12:23:00,52.7,31.0,29.08,SW,216,4.0,21.0,43,0.00,,,0.00,weatherlink.com 1.10,2013-10-19 20:23:00,
2013-10-19 12:38:00,52.3,32.0,29.09,SW,223,10.0,22.0,46,0.00,,,0.00,weatherlink.com 1.10,2013-10-19 20:38:00,
2013-10-19 12:53:00,52.1,33.0,29.10,South,178,6.0,24.0,48,0.00,,,0.00,weatherlink.com 1.10,2013-10-19 20:53:00,
2013-10-19 13:08:00,53.2,33.0,29.10,SW,218,14.0,20.0,46,0.00,,,0.00,weatherlink.com 1.10,2013-10-19 21:08:00,
2013-10-19 13:23:00,54.1,32.0,29.10,SSE,168,13.0,20.0,44,0.00,,,0.00,weatherlink.com 1.10,2013-10-19 21:23:00,
2013-10-19 13:38:00,53.6,32.0,29.10,South,191,12.0,20.0,44,0.00,,,0.00,weatherlink.com 1.10,2013-10-19 21:38:00,
2013-10-19 13:53:00,52.9,32.0,29.11,WSW,238,11.0,17.0,45,0.00,,,0.00,weatherlink.com 1.10,2013-10-19 21:53:00,
2013-10-19 14:08:00,52.9,32.0,29.11,SSW,196,12.0,15.0,45,0.00,,,0.00,weatherlink.com 1.10,2013-10-19 22:08:00,
2013-10-19 14:23:00,53.2,32.0,29.11,SSW,203,11.0,24.0,45,0.00,,,0.00,weatherlink.com 1.10,2013-10-19 22:23:00,
2013-10-19 14:38:00,53.1,32.0,29.12,SSW,193,8.0,26.0,45,0.00,,,0.00,weatherlink.com 1.10,2013-10-19 22:38:00,
2013-10-19 14:53:00,53.2,33.0,29.12,SSW,200,14.0,21.0,46,0.00,,,0.00,weatherlink.com 1.10,2013-10-19 22:53:00,
2013-10-19 15:08:00,53.0,33.0,29.12,South,189,11.0,22.0,46,0.00,,,0.00,weatherlink.com 1.10,2013-10-19 23:08:00,
2013-10-19 15:23:00,52.9,33.0,29.13,South,175,8.0,21.0,47,0.00,,,0.00,weatherlink.com 1.10,2013-10-19 23:23:00,
2013-10-19 15:38:00,52.9,33.0,29.13,SW,218,9.0,19.0,47,0.00,,,0.00,weatherlink.com 1.10,2013-10-19 23:38:00,
2013-10-19 15:53:00,52.7,33.0,29.13,South,189,12.0,22.0,47,0.00,,,0.00,weatherlink.com 1.10,2013-10-19 23:53:00,
2013-10-19 16:08:00,52.8,32.0,29.13,South,183,15.0,20.0,46,0.00,,,0.00,weatherlink.com 1.10,2013-10-20 00:08:00,
2013-10-19 16:23:00,52.6,33.0,29.14,SW,220,16.0,25.0,48,0.00,,,0.00,weatherlink.com 1.10,2013-10-20 00:23:00,
2013-10-19 16:38:00,52.7,33.0,29.14,SSW,208,16.0,21.0,47,0.00,,,0.00,weatherlink.com 1.10,2013-10-20 00:38:00,
2013-10-19 16:53:00,52.7,33.0,29.14,SSW,199,11.0,22.0,47,0.00,,,0.00,weatherlink.com 1.10,2013-10-20 00:53:00,
2013-10-19 17:08:00,52.6,33.0,29.14,SSE,162,10.0,23.0,47,0.00,,,0.00,weatherlink.com 1.10,2013-10-20 01:08:00,
2013-10-19 17:23:00,52.6,32.0,29.15,SSW,200,20.0,28.0,46,0.00,,,0.00,weatherlink.com 1.10,2013-10-20 01:23:00,
2013-10-19 17:38:00,52.4,32.0,29.15,SW,216,23.0,25.0,47,0.00,,,0.00,weatherlink.com 1.10,2013-10-20 01:38:00,
2013-10-19 17:53:00,52.2,32.0,29.16,WSW,244,10.0,29.0,47,0.00,,,0.00,weatherlink.com 1.10,2013-10-20 01:53:00,
2013-10-19 18:08:00,52.3,32.0,29.16,SSW,196,13.0,21.0,46,0.00,,,0.00,weatherlink.com 1.10,2013-10-20 02:08:00,
2013-10-19 18:23:00,52.2,32.0,29.16,South,171,13.0,16.0,46,0.00,,,0.00,weatherlink.com 1.10,2013-10-20 02:23:00,
2013-10-19 18:38:00,52.2,32.0,29.16,SW,229,11.0,26.0,46,0.00,,,0.00,weatherlink.com 1.10,2013-10-20 02:38:00,
2013-10-19 18:53:00,52.3,32.0,29.16,South,188,28.0,28.0,46,0.00,,,0.00,weatherlink.com 1.10,2013-10-20 02:53:00,
2013-10-19 19:08:00,52.2,32.0,29.16,SSE,168,24.0,31.0,47,0.00,,,0.00,weatherlink.com 1.10,2013-10-20 03:08:00,
2013-10-19 19:23:00,52.1,32.0,29.16,SSW,210,10.0,28.0,47,0.00,,,0.00,weatherlink.com 1.10,2013-10-20 03:23:00,
2013-10-19 19:38:00,52.0,32.0,29.17,South,184,19.0,30.0,47,0.00,,,0.00,weatherlink.com 1.10,2013-10-20 03:38:00,
2013-10-19 19:53:00,52.2,32.0,29.17,South,171,8.0,27.0,46,0.00,,,0.00,weatherlink.com 1.10,2013-10-20 03:53:00,
2013-10-19 20:08:00,52.1,32.0,29.18,SSW,192,10.0,25.0,46,0.00,,,0.00,weatherlink.com 1.10,2013-10-20 04:08:00,
2013-10-19 20:23:00,51.9,33.0,29.19,South,175,13.0,25.0,48,0.00,,,0.00,weatherlink.com 1.10,2013-10-20 04:23:00,
2013-10-19 20:38:00,52.0,32.0,29.19,SSE,164,8.0,26.0,47,0.00,,,0.00,weatherlink.com 1.10,2013-10-20 04:38:00,
2013-10-19 20:53:00,52.1,32.0,29.20,SSW,208,14.0,26.0,46,0.00,,,0.00,weatherlink.com 1.10,2013-10-20 04:53:00,
2013-10-19 21:09:00,52.5,32.0,29.21,South,180,8.0,21.0,45,0.00,,,0.00,weatherlink.com 1.10,2013-10-20 05:09:00,
2013-10-19 21:24:00,52.8,32.0,29.21,SW,216,7.0,28.0,45,0.00,,,0.00,weatherlink.com 1.10,2013-10-20 05:24:00,
2013-10-19 21:39:00,52.3,32.0,29.22,SW,229,5.0,23.0,47,0.00,,,0.00,weatherlink.com 1.10,2013-10-20 05:39:00,
2013-10-19 21:54:00,52.5,33.0,29.23,South,178,10.0,23.0,47,0.00,,,0.00,weatherlink.com 1.10,2013-10-20 05:54:00,
2013-10-19 22:09:00,52.5,33.0,29.23,South,181,11.0,18.0,47,0.00,,,0.00,weatherlink.com 1.10,2013-10-20 06:09:00,
2013-10-19 22:24:00,52.6,33.0,29.24,SW,230,12.0,18.0,47,0.00,,,0.00,weatherlink.com 1.10,2013-10-20 06:24:00,
2013-10-19 22:39:00,51.9,33.0,29.24,WSW,240,6.0,8.0,49,0.00,,,0.00,weatherlink.com 1.10,2013-10-20 06:39:00,
2013-10-19 22:54:00,51.1,34.0,29.25,SW,216,13.0,14.0,52,0.00,,,0.00,weatherlink.com 1.10,2013-10-20 06:54:00,
2013-10-19 23:09:00,50.9,34.0,29.25,West,260,0.0,11.0,52,0.00,,,0.00,weatherlink.com 1.10,2013-10-20 07:09:00,
2013-10-19 23:24:00,50.9,35.0,29.26,WSW,247,12.0,17.0,54,0.00,,,0.00,weatherlink.com 1.10,2013-10-20 07:24:00,
2013-10-19 23:39:00,51.3,34.0,29.27,SSW,207,7.0,26.0,53,0.00,,,0.00,weatherlink.com 1.10,2013-10-20 07:39:00,
2013-10-19 23:54:00,51.1,34.0,29.27,South,185,6.0,19.0,53,0.00,,,0.00,weatherlink.com 1.10,2013-10-20 07:54:00,